Track SPACE STATION now! 10-day predictions The ISS Notification Tool HD Live streaming from Space Station SPACE STATION is classified as:
1 25544U 98067A 26193.41162669 .00004782 00000-0 94926-4 0 9991 2 25544 51.6301 175.2558 0006698 286.7033 73.3220 15.48989885575660